TimeEST,TemperatureF,Dew PointF,Humidity,Sea Level PressureIn,VisibilityMPH,Wind Direction,Wind SpeedMPH,Gust SpeedMPH,PrecipitationIn,Events,Conditions,WindDirDegrees,DateUTC
12:53 AM,43.0,41.0,93,29.86,2.0,ENE,5.8,-,0.01,,Overcast,60,2012-12-08 05:53:00
1:53 AM,43.0,41.0,93,29.83,2.5,ENE,6.9,-,0.01,,Overcast,60,2012-12-08 06:53:00
2:53 AM,43.0,42.1,97,29.83,2.0,NE,5.8,-,N/A,,Overcast,50,2012-12-08 07:53:00
3:41 AM,42.8,41.0,93,29.83,1.8,NNE,5.8,-,0.01,Rain,Light Rain,30,2012-12-08 08:41:00
3:53 AM,43.0,41.0,93,29.84,1.8,North,4.6,-,0.01,Rain,Light Rain,10,2012-12-08 08:53:00
4:53 AM,43.0,41.0,93,29.83,1.8,NNE,4.6,-,0.02,,Overcast,20,2012-12-08 09:53:00
5:51 AM,42.8,41.0,93,29.82,2.0,NNE,3.5,-,0.01,,Overcast,20,2012-12-08 10:51:00
5:53 AM,43.0,41.0,93,29.82,2.0,NNE,3.5,-,0.01,,Overcast,20,2012-12-08 10:53:00
6:04 AM,42.8,41.0,93,29.80,1.8,NE,5.8,-,N/A,,Overcast,40,2012-12-08 11:04:00
6:53 AM,42.1,41.0,96,29.83,1.5,North,5.8,-,N/A,,Overcast,10,2012-12-08 11:53:00
7:16 AM,42.8,41.0,93,29.83,2.0,NNE,5.8,-,N/A,,Overcast,20,2012-12-08 12:16:00
7:53 AM,42.1,41.0,96,29.85,2.5,NE,4.6,-,N/A,,Overcast,40,2012-12-08 12:53:00
8:23 AM,42.8,41.0,93,29.84,1.8,NE,3.5,-,N/A,,Overcast,50,2012-12-08 13:23:00
8:53 AM,42.1,41.0,96,29.86,1.0,Calm,Calm,-,N/A,,Overcast,0,2012-12-08 13:53:00
9:53 AM,43.0,41.0,93,29.88,1.0,Calm,Calm,-,N/A,,Overcast,0,2012-12-08 14:53:00
10:23 AM,42.8,42.8,100,29.89,0.8,NW,3.5,-,N/A,,Overcast,310,2012-12-08 15:23:00
10:53 AM,43.0,42.1,97,29.91,0.5,NNW,4.6,-,N/A,Fog,Fog,330,2012-12-08 15:53:00
11:18 AM,44.6,42.8,93,29.89,1.0,NNW,4.6,-,N/A,,Overcast,330,2012-12-08 16:18:00
11:21 AM,44.6,42.8,93,29.89,1.2,NNW,4.6,-,N/A,,Overcast,340,2012-12-08 16:21:00
11:36 AM,44.6,42.8,93,29.89,2.0,Calm,Calm,-,0.01,,Overcast,0,2012-12-08 16:36:00
11:48 AM,44.6,42.8,93,29.89,4.0,NNW,5.8,-,0.01,,Overcast,330,2012-12-08 16:48:00
11:53 AM,44.1,42.1,93,29.90,4.0,NW,6.9,-,0.01,,Overcast,320,2012-12-08 16:53:00
12:06 PM,44.6,42.8,93,29.89,6.0,NNW,4.6,-,N/A,,Overcast,340,2012-12-08 17:06:00
12:53 PM,44.1,41.0,89,29.91,8.0,North,9.2,-,N/A,,Overcast,360,2012-12-08 17:53:00
1:21 PM,42.8,39.2,87,29.90,2.5,NNE,9.2,-,N/A,,Overcast,20,2012-12-08 18:21:00
1:30 PM,42.8,39.2,87,29.91,3.0,NNE,8.1,-,N/A,,Overcast,20,2012-12-08 18:30:00
1:53 PM,41.0,37.9,89,29.93,4.0,NNE,9.2,-,N/A,,Overcast,20,2012-12-08 18:53:00
2:53 PM,39.9,37.0,89,29.98,9.0,North,9.2,-,N/A,,Overcast,10,2012-12-08 19:53:00
3:53 PM,39.0,36.0,89,30.02,10.0,NNE,6.9,-,N/A,,Overcast,20,2012-12-08 20:53:00
4:35 PM,39.2,35.6,87,30.02,10.0,North,6.9,-,N/A,,Overcast,10,2012-12-08 21:35:00
4:53 PM,39.0,35.1,86,30.04,10.0,North,6.9,-,N/A,,Overcast,10,2012-12-08 21:53:00
5:40 PM,39.2,33.8,81,30.05,10.0,NNE,4.6,-,N/A,,Overcast,20,2012-12-08 22:40:00
5:53 PM,39.0,35.1,86,30.07,10.0,North,3.5,-,N/A,,Overcast,360,2012-12-08 22:53:00
6:53 PM,39.0,34.0,82,30.09,10.0,North,5.8,-,N/A,,Overcast,360,2012-12-08 23:53:00
7:53 PM,37.9,33.1,83,30.12,10.0,North,3.5,-,N/A,,Overcast,10,2012-12-09 00:53:00
8:00 PM,37.4,33.8,87,30.10,10.0,NNE,4.6,-,N/A,,Overcast,20,2012-12-09 01:00:00
8:53 PM,37.9,33.1,83,30.13,10.0,Calm,Calm,-,N/A,,Overcast,0,2012-12-09 01:53:00
9:53 PM,37.9,32.0,79,30.14,10.0,ENE,8.1,-,N/A,,Overcast,60,2012-12-09 02:53:00
10:53 PM,37.0,32.0,82,30.15,10.0,NE,8.1,-,N/A,,Overcast,40,2012-12-09 03:53:00
11:53 PM,37.0,32.0,82,30.17,10.0,NE,5.8,-,N/A,,Overcast,50,2012-12-09 04:53:00